Location: Newark
(48.1333°N, 17.1000°E)
Time: 00:33:21
(UTC+00:00)

N. Korean satellite - Pass Details

Date: 29 January 2020
Orbit: 456 x 505 km, 97.2° (Epoch: 21 February)

Event Time Altitude Azimuth Distance (km) Brightness Sun altitude
Rises 05:32:47 0° 2° (N) 2,546 10.1 -8.8°
Reaches altitude 10° 05:35:02 10° 350° (N) 1,670 9.0 -8.4°
Maximum altitude 05:38:06 27° 292° (WNW) 973 7.5 -8.0°
Drops below altitude 10° 05:41:11 10° 233° (SW) 1,682 9.0 -7.5°
Sets 05:43:28 0° 221° (SW) 2,568 10.0 -7.1°
